Location: Leiter
(44.7178°N, 106.2687°W)
Time: 16:45:38
(UTC+00:00)

CUBESAT XI-V - Pass Details

Date: 07 July 2022
Orbit: 668 x 690 km, 98.1° (Epoch: 18 August)

Event Time Altitude Azimuth Distance (km) Brightness Sun altitude
Exits shadow 08:11:36 22° 127° (SE) 1,474 ? -21.3°
Maximum altitude 08:14:08 41° 70° (ENE) 980 ? -21.1°
Drops below altitude 10° 08:18:26 10° 1° (N) 2,106 ? -20.9°
Sets 08:20:45 0° 354° (N) 3,023 ? -20.8°
